Wind_Speed
18 19 19 20 22 22 22 22 22 23 24 24 24 24 24 25 25 25 24 24 25 25 25 25 25 26 25 25 25 25 25 24 24 24 24 23 23 24 25 25 26 26 26
18 18 20 21 21 22 23 23 23 24 24 24 25 25 25 25 25 24 24 25 25 25 25 25 26 26 25 25 25 25 25 24 24 25 24 24 25 25 26 26 27 27 27
19 20 21 21 22 22 22 23 24 25 25 25 25 25 25 24 23 23 23 24 24 24 24 24 25 26 26 26 26 26 26 25 25 25 26 26 25 26 26 26 26 27 27
20 20 21 21 22 21 22 23 23 25 25 26 25 25 24 24 23 23 23 23 23 23 24 24 25 26 26 26 26 26 26 26 26 26 27 27 26 26 26 26 26 26 27
21 20 21 22 22 22 23 24 25 26 26 26 25 25 25 24 23 23 24 25 25 24 24 24 24 25 25 25 25 26 26 26 26 26 27 27 27 27 26 25 26 26 26
21 20 21 22 22 23 24 25 25 26 27 26 24 24 23 23 23 23 24 24 24 24 24 24 24 24 24 25 25 25 26 26 27 27 27 27 26 26 26 25 26 26 26
21 21 22 22 23 24 25 25 25 26 27 25 25 24 23 23 23 23 23 22 22 22 23 23 24 25 25 25 25 26 26 26 27 27 27 26 26 26 26 26 26 26 26
22 22 22 23 24 24 25 25 25 25 25 25 25 24 24 23 23 23 23 23 23 24 24 24 24 25 26 26 25 26 26 27 27 27 27 26 26 26 26 26 26 26 26
22 23 23 22 23 24 24 25 25 25 25 24 24 24 24 24 24 24 24 23 24 24 24 24 25 25 25 25 26 26 26 27 27 26 26 26 26 26 26 26 26 26 26
22 23 23 24 24 25 24 25 25 25 25 24 24 24 25 25 25 25 24 24 24 23 23 23 24 24 25 26 26 26 26 26 26 26 26 25 26 26 26 26 26 26 26
22 23 23 24 24 24 25 25 25 26 25 25 26 26 26 26 26 26 25 24 24 25 25 25 24 24 25 25 25 25 26 26 26 26 25 25 25 25 25 25 25 24 24
23 23 24 24 24 25 25 26 25 25 25 26 26 26 27 26 26 26 25 25 25 25 25 25 24 24 24 24 24 24 24 25 25 25 25 25 25 24 24 24 23 22 22
23 23 24 24 24 24 24 24 25 25 26 26 26 26 26 25 24 24 24 24 24 24 24 24 23 23 22 22 23 23 23 22 22 23 23 23 23 23 22 22 22 22 21
21 22 24 24 24 25 25 25 25 26 26 26 25 25 24 24 24 24 23 23 22 22 23 22 22 21 21 21 21 21 21 21 20 21 21 21 21 21 21 20 20 20 19
22 23 23 24 24 25 25 25 25 25 25 25 25 24 24 23 23 23 22 21 21 21 21 21 20 20 20 19 19 19 18 18 19 19 18 19 19 19 18 18 18 17 17
23 23 23 24 24 24 25 25 24 23 23 23 23 22 22 22 22 21 20 19 20 20 20 19 19 19 18 17 16 16 16 16 16 16 17 17 16 15 15 16 16 15 15
21 22 22 23 22 22 22 23 23 23 22 21 21 20 20 20 19 18 18 18 18 18 18 17 17 16 15 15 15 15 14 14 14 14 14 14 14 13 13 13 13 13 13
19 19 19 20 20 20 20 20 19 18 18 18 17 17 16 16 16 16 16 15 14 14 14 14 14 13 12 12 12 11 12 12 12 11 11 10 10 10 10 11 11 11 11
17 17 17 17 18 18 17 16 15 15 15 14 14 14 13 13 14 14 13 12 12 11 10 10 10 9 8 8 7 7 7 7 7 7 7 7 6 6 6 7 8 8 8
15 15 15 16 16 16 14 13 13 13 13 12 12 12 11 12 12 11 10 10 9 9 8 7 7 6 6 5 5 5 4 4 3 3 2 2 3 3 3 3 3 3 4
13 13 13 14 14 13 12 12 11 11 10 9 9 9 9 9 9 8 8 7 7 6 5 5 4 4 3 3 2 1 1 2 2 1 1 0 0 1 1 1 1 1 1
12 12 12 12 12 12 11 10 9 8 8 8 8 7 7 7 7 6 6 5 4 3 3 3 2 2 1 1 2 2 2 3 3 3 2 2 3 3 3 2 3 3 2
10 10 11 10 10 10 10 9 8 7 8 7 7 6 6 6 6 5 3 2 1 2 2 1 0 1 2 3 3 3 4 4 4 4 4 4 5 5 5 5 5 4 4
9 9 9 9 9 9 9 8 7 7 7 7 8 6 5 5 4 4 3 2 2 2 3 2 2 2 3 4 4 4 4 4 4 5 5 5 6 6 6 7 7 7 6
9 9 9 8 8 8 8 8 8 8 8 7 7 7 6 6 5 4 4 4 4 3 3 4 4 4 4 5 4 4 5 6 6 6 6 7 7 7 7 7 7 7 7
7 7 8 7 8 8 9 9 9 9 8 8 8 7 7 6 6 6 5 6 6 6 6 6 6 6 6 5 5 5 6 6 6 7 7 8 8 9 9 8 8 8 8
Wind_Direction
273 276 280 284 287 290 291 292 291 289 290 288 287 285 282 281 280 280 278 274 271 270 269 269 270 272 272 274 275 276 276 276 277 278 278 278 278 278 279 280 280 280 281
277 278 282 283 286 289 290 290 291 291 291 289 290 287 283 280 281 281 276 273 272 272 272 271 270 269 271 274 275 276 276 276 278 279 279 278 281 281 280 281 282 282 282
279 280 282 285 287 289 290 289 289 291 292 290 289 287 284 281 279 276 275 275 275 274 274 274 272 270 271 272 273 275 275 276 276 277 279 279 279 281 281 280 280 282 283
280 282 283 285 285 287 291 291 290 291 291 290 288 287 284 282 279 279 280 280 279 276 275 274 273 272 272 272 273 274 275 276 276 277 278 279 280 281 280 281 281 281 282
280 282 284 285 284 285 289 291 289 290 291 291 291 289 288 286 283 281 281 282 282 279 279 277 274 275 274 275 275 276 275 275 277 277 278 278 279 280 280 280 281 282 282
283 284 286 284 284 284 287 290 289 290 291 292 292 291 290 289 288 285 284 283 281 280 278 278 277 277 276 276 277 276 275 275 276 277 277 277 277 278 279 280 281 282 284
285 284 287 287 285 284 285 287 289 289 290 290 291 291 290 290 290 290 289 287 285 281 279 279 280 278 277 277 277 277 276 276 276 277 276 276 276 278 279 280 281 282 284
282 285 288 289 288 286 285 286 289 290 290 291 290 288 288 288 289 290 290 288 285 283 282 280 278 279 278 276 276 276 276 276 276 276 276 275 276 278 279 280 281 283 284
283 286 288 290 290 288 288 287 287 289 291 292 289 288 287 288 290 291 290 287 285 284 282 279 278 279 279 277 277 277 276 275 274 274 274 275 276 277 278 280 281 282 283
284 286 289 290 291 291 290 288 287 287 289 290 290 288 287 287 290 291 289 288 286 285 284 284 282 282 281 279 278 277 277 276 276 275 274 275 276 277 278 280 281 282 283
284 286 288 290 291 292 290 289 287 288 289 289 289 288 289 289 289 289 289 288 288 287 287 287 285 283 282 280 279 278 278 277 276 276 275 276 277 276 276 278 280 281 283
285 286 289 290 289 291 291 290 288 288 288 289 289 289 289 288 287 288 289 287 286 286 286 286 285 283 283 282 281 280 279 278 277 276 275 276 277 277 275 276 278 280 281
287 288 290 292 293 293 293 292 290 289 288 289 289 289 287 287 287 287 288 287 287 287 287 286 285 284 283 283 283 281 279 278 277 276 276 275 275 276 275 275 277 278 279
289 289 290 292 294 295 295 295 293 291 290 290 289 289 289 288 288 288 288 288 287 286 286 287 285 284 284 284 283 282 280 278 276 276 276 275 274 274 275 275 275 276 277
288 291 293 294 294 295 296 295 295 294 293 291 290 290 290 289 288 288 289 288 287 286 285 285 285 285 285 284 284 282 281 280 277 276 276 277 277 276 274 274 272 274 273
289 291 292 294 295 295 296 297 297 295 294 294 293 291 290 290 291 290 290 291 290 287 285 285 285 285 285 283 283 283 281 281 278 278 277 276 277 275 272 269 268 268 267
291 292 294 298 301 302 303 300 299 297 296 294 292 290 290 290 293 290 290 292 292 290 288 286 286 285 283 284 284 282 280 281 281 282 280 278 276 272 269 265 263 263 263
296 298 299 303 304 305 305 304 302 299 298 297 295 294 293 293 293 292 291 289 290 290 289 288 287 286 283 284 287 284 280 278 277 278 278 277 277 273 267 264 263 260 259
302 306 307 309 311 311 310 309 305 304 303 301 302 301 300 299 295 294 291 289 290 292 293 292 292 288 285 287 289 288 289 286 282 280 278 275 277 273 267 265 263 261 262
308 312 312 315 318 318 315 314 314 312 309 306 305 304 304 303 299 298 297 295 291 291 295 296 298 292 288 284 283 294 300 302 303 291 277 270 267 274 265 260 255 258 256
317 319 321 323 325 326 326 324 323 324 322 316 313 311 310 309 307 304 302 302 293 287 287 292 301 298 288 282 283 294 347 19 30 37 43 77 325 297 225 200 192 183 175
321 323 326 328 331 333 335 335 336 337 335 331 330 325 327 328 324 313 305 300 300 298 293 290 299 308 345 66 85 87 84 68 62 74 90 92 86 80 100 108 115 105 109
330 333 332 331 337 342 344 343 343 348 352 347 344 337 331 336 339 338 332 332 334 340 334 327 317 91 85 84 89 84 87 78 70 75 85 86 88 88 92 90 89 95 107
343 343 343 343 345 350 355 356 358 4 10 11 8 0 352 352 357 360 18 33 28 36 37 56 99 101 103 101 99 92 89 83 84 87 86 93 96 95 94 95 93 93 97
351 351 354 357 356 358 4 11 17 19 18 15 15 17 22 28 30 34 49 58 58 58 63 77 92 103 107 105 101 97 92 92 91 93 94 100 100 95 95 96 95 95 95
360 2 5 11 15 17 19 20 20 22 26 29 31 34 40 45 45 51 58 66 74 75 80 91 105 112 110 105 100 99 103 104 97 96 97 102 99 96 95 97 96 94 92
Height
5856 5857 5857 5856 5856 5855 5853 5852 5851 5849 5848 5846 5845 5843 5843 5842 5842 5841 5841 5840 5840 5840 5841 5842 5843 5843 5844 5845 5845 5846 5846 5846 5847 5847 5847 5847 5847 5847 5847 5847 5847 5847 5847
5851 5851 5852 5852 5851 5850 5849 5848 5846 5844 5843 5842 5840 5839 5838 5837 5836 5836 5835 5835 5835 5834 5835 5836 5837 5837 5838 5838 5839 5840 5840 5840 5841 5841 5841 5841 5842 5841 5841 5841 5841 5841 5840
5848 5848 5848 5847 5847 5846 5844 5843 5841 5840 5837 5836 5835 5833 5832 5832 5831 5830 5830 5830 5829 5829 5829 5830 5830 5831 5832 5832 5833 5833 5834 5834 5834 5834 5835 5835 5835 5835 5835 5834 5834 5834 5834
5845 5844 5844 5843 5842 5841 5840 5838 5837 5835 5833 5832 5830 5829 5827 5827 5826 5825 5824 5824 5823 5823 5823 5823 5824 5825 5825 5826 5826 5827 5827 5828 5828 5828 5828 5828 5828 5828 5828 5828 5828 5827 5827
5840 5840 5840 5838 5837 5836 5835 5834 5832 5830 5829 5827 5825 5824 5822 5821 5821 5820 5819 5819 5818 5817 5817 5818 5818 5818 5819 5819 5820 5820 5820 5821 5821 5821 5821 5821 5821 5821 5821 5821 5821 5821 5820
5836 5836 5835 5834 5832 5831 5830 5829 5827 5825 5824 5822 5820 5818 5817 5816 5815 5814 5814 5813 5812 5812 5811 5812 5812 5812 5813 5813 5813 5813 5814 5814 5814 5814 5814 5814 5814 5814 5814 5814 5814 5814 5813
5832 5831 5830 5829 5827 5826 5825 5823 5822 5820 5819 5817 5815 5813 5812 5811 5810 5809 5808 5807 5806 5806 5805 5806 5806 5806 5806 5806 5806 5806 5806 5807 5807 5807 5807 5807 5807 5807 5807 5807 5807 5807 5807
5828 5827 5826 5824 5823 5821 5819 5818 5816 5815 5813 5812 5810 5808 5807 5806 5805 5803 5802 5801 5801 5800 5799 5799 5799 5799 5799 5799 5799 5799 5799 5799 5799 5799 5800 5800 5800 5800 5800 5800 5800 5800 5800
5824 5823 5821 5820 5818 5816 5814 5813 5811 5810 5808 5806 5805 5803 5801 5800 5799 5797 5796 5795 5794 5794 5793 5793 5793 5792 5792 5792 5792 5792 5792 5792 5792 5792 5792 5792 5792 5792 5792 5793 5793 5794 5793
5819 5818 5816 5815 5813 5811 5809 5807 5805 5804 5802 5801 5799 5797 5796 5794 5793 5792 5790 5789 5788 5787 5786 5786 5786 5785 5785 5785 5785 5784 5784 5784 5784 5785 5785 5785 5785 5785 5785 5785 5785 5786 5786
5814 5813 5811 5810 5808 5805 5803 5801 5800 5798 5796 5795 5793 5791 5789 5788 5787 5786 5784 5783 5782 5781 5780 5780 5779 5779 5778 5777 5777 5777 5777 5777 5777 5777 5777 5777 5777 5778 5778 5778 5779 5779 5779
5809 5807 5806 5804 5802 5800 5798 5796 5794 5792 5790 5788 5787 5785 5783 5782 5780 5779 5778 5777 5776 5775 5774 5773 5773 5772 5771 5770 5770 5770 5770 5770 5770 5770 5770 5770 5770 5771 5771 5772 5772 5772 5773
5804 5802 5800 5798 5797 5795 5792 5790 5788 5786 5784 5782 5781 5779 5777 5776 5774 5773 5772 5771 5770 5769 5768 5767 5766 5765 5765 5764 5764 5763 5763 5763 5763 5763 5763 5764 5764 5764 5765 5766 5766 5766 5767
5799 5797 5795 5793 5791 5789 5787 5784 5782 5780 5778 5776 5774 5772 5771 5769 5768 5767 5766 5765 5764 5763 5762 5761 5760 5759 5759 5758 5757 5757 5757 5756 5756 5757 5757 5757 5758 5758 5759 5760 5760 5761 5761
5794 5792 5790 5787 5785 5783 5781 5778 5776 5773 5771 5769 5768 5766 5765 5763 5762 5761 5760 5759 5758 5757 5756 5755 5755 5754 5753 5752 5752 5751 5751 5751 5751 5751 5751 5752 5752 5753 5753 5754 5755 5755 5756
5789 5787 5785 5782 5780 5777 5775 5772 5770 5767 5765 5763 5761 5760 5759 5757 5756 5755 5754 5753 5753 5752 5751 5750 5750 5749 5748 5747 5747 5746 5746 5746 5746 5746 5746 5747 5747 5747 5748 5749 5750 5750 5751
5785 5782 5780 5777 5774 5772 5769 5766 5764 5761 5759 5757 5756 5754 5753 5752 5751 5750 5749 5749 5748 5747 5746 5746 5745 5744 5744 5743 5743 5742 5742 5742 5742 5742 5742 5742 5742 5743 5744 5744 5745 5746 5747
5780 5778 5775 5773 5770 5767 5764 5761 5758 5756 5754 5752 5751 5749 5748 5747 5747 5746 5745 5744 5743 5743 5742 5741 5741 5740 5740 5739 5739 5739 5738 5738 5738 5738 5738 5738 5739 5739 5740 5740 5741 5742 5743
5776 5774 5771 5769 5766 5763 5760 5757 5754 5752 5750 5748 5747 5746 5745 5744 5743 5742 5741 5741 5740 5739 5739 5738 5738 5737 5737 5737 5737 5736 5736 5736 5735 5735 5736 5736 5736 5737 5737 5738 5738 5739 5740
5773 5771 5768 5766 5763 5760 5757 5754 5752 5749 5747 5746 5744 5743 5742 5741 5740 5739 5739 5738 5737 5737 5737 5736 5736 5735 5735 5735 5735 5735 5735 5734 5734 5734 5734 5735 5735 5735 5735 5736 5736 5737 5738
5771 5768 5766 5763 5760 5757 5754 5752 5749 5747 5745 5744 5742 5741 5740 5739 5738 5737 5736 5736 5735 5735 5735 5735 5735 5735 5734 5734 5734 5735 5735 5734 5734 5734 5734 5735 5735 5735 5735 5735 5736 5736 5737
5769 5766 5764 5761 5758 5755 5753 5750 5748 5746 5744 5743 5741 5740 5739 5738 5737 5736 5735 5735 5735 5735 5735 5735 5735 5734 5734 5734 5735 5735 5735 5735 5735 5735 5735 5735 5735 5735 5735 5736 5736 5737 5737
5767 5765 5762 5759 5757 5754 5752 5750 5748 5746 5744 5742 5741 5739 5739 5737 5736 5736 5735 5735 5735 5734 5735 5735 5735 5735 5735 5735 5736 5736 5736 5737 5736 5736 5736 5736 5737 5737 5737 5737 5737 5738 5738
5766 5763 5761 5759 5756 5754 5752 5750 5747 5746 5744 5742 5741 5740 5739 5737 5737 5736 5735 5735 5735 5735 5735 5735 5735 5736 5736 5737 5737 5738 5738 5738 5738 5738 5738 5738 5738 5739 5739 5739 5739 5740 5740
5765 5763 5761 5759 5757 5755 5752 5750 5748 5746 5745 5743 5742 5741 5739 5738 5738 5737 5736 5736 5736 5736 5736 5736 5736 5737 5738 5738 5739 5739 5739 5740 5740 5739 5740 5740 5741 5741 5741 5741 5742 5742 5742
5766 5763 5761 5759 5757 5755 5753 5751 5749 5748 5746 5745 5743 5742 5741 5740 5739 5739 5738 5738 5737 5737 5737 5737 5738 5739 5739 5740 5740 5741 5741 5741 5742 5742 5742 5743 5743 5743 5743 5744 5744 5744 5744